Location: Grasslands National Park East Block
(49.0708°N, 106.5295°W)
Time: 12:04:28
(UTC-06:00)

Vanguard 1 - Visible Passes

Search period start: 17 October 2019 00:00
Search period end: 27 October 2019 00:00
Orbit: 653 x 3830 km, 34.2° (Epoch: 17 October)

Date Brightness Start Highest point End Pass type
(mag) Time Alt. Az. Time Alt. Az. Time Alt. Az.
17 Oct 13.4 00:31:52 10° WSW 01:09:18 - SE 00:32:46 13° WSW visible
17 Oct 13.8 03:22:03 17° S 03:22:03 17° S 03:26:37 10° SSE visible
17 Oct 12.2 20:14:46 10° SSW 20:22:56 31° SSE 20:26:57 27° ESE visible
17 Oct 12.4 22:32:39 10° WSW 22:39:38 38° SSW 22:39:38 38° SSW visible
18 Oct13.601:29:36SE01:29:36SE00:52:20Wvisible
18 Oct 13.9 03:42:21 13° S 03:42:21 13° S 03:45:04 10° S visible
18 Oct 12.1 20:34:58 10° SW 20:43:27 36° SSE 20:46:30 32° SE visible
18 Oct 12.6 22:53:23 10° WSW 22:59:12 33° SW 22:59:12 33° SW visible
19 Oct13.801:49:49SE01:49:49SE01:11:53Wvisible
19 Oct 12.4 18:39:41 10° S 18:44:45 17° SE 18:51:39 10° ESE visible
19 Oct 12.1 20:55:21 10° SW 21:04:07 39° SSE 21:06:02 37° SSE visible
19 Oct 12.8 23:14:12 10° WSW 23:18:44 27° SW 23:18:44 27° SW visible
20 Oct 12.2 18:59:09 10° SSW 19:05:01 22° SE 19:12:53 11° ESE visible
20 Oct 12.1 21:15:51 10° SW 21:24:51 41° S 21:25:34 40° SSE visible
20 Oct 13.0 23:35:07 10° WSW 23:38:15 21° WSW 23:38:15 21° WSW visible
21 Oct 12.1 19:19:02 10° SSW 19:25:24 26° SSE 19:32:24 16° ESE visible
21 Oct 12.1 21:36:28 10° WSW 21:45:06 41° S 21:45:06 41° S visible
21 Oct 13.2 23:56:09 10° WSW 23:57:47 15° WSW 23:57:47 15° WSW visible
22 Oct 12.0 19:39:12 10° SW 19:45:54 30° SSE 19:51:56 20° ESE visible
22 Oct 12.2 21:57:10 10° WSW 22:04:38 38° SSW 22:04:38 38° SSW visible
23 Oct 11.9 19:59:33 10° SW 20:06:31 33° SSE 20:11:28 25° SE visible
23 Oct 12.4 22:17:59 10° WSW 22:24:09 34° SW 22:24:09 34° SW visible
24 Oct 11.9 20:20:02 10° SW 20:27:12 35° S 20:31:01 29° SE visible
24 Oct 12.6 22:38:53 10° WSW 22:43:42 27° SW 22:43:42 27° SW visible
25 Oct 12.0 18:23:33 10° SSW 18:28:20 21° SSE 18:35:13 10° ESE visible
25 Oct 11.9 20:40:38 10° WSW 20:47:59 35° S 20:50:35 32° SSE visible
25 Oct 12.8 22:59:56 10° WSW 23:03:17 21° SW 23:03:17 21° SW visible
26 Oct 11.9 18:43:39 10° SSW 18:48:51 25° SSE 18:56:38 10° ESE visible
26 Oct 12.0 21:01:20 10° WSW 21:08:48 34° S 21:10:11 33° SSE visible
26 Oct 13.1 23:21:10 10° WSW 23:22:52 15° WSW 23:22:52 15° WSW visible
